Regional Weather Roundup
Issued by NWS

Home | Current Version | Previous Version | Graphics & Text | Print | Product List | Glossary On
Versions: 1 2 3 4 5 6 7 8 9 10 11 12 13 14 15 16 17 18 19 20 21 22 23 24 25 26 27 28 29 30 31 32 33 34 35 36 37 38 39 40 41 42 43 44 45 46 47 48 49 50
000
ASUS43 KMKX 250000
RWRWI

WISCONSIN REGIONAL WEATHER ROUNDUP
NATIONAL WEATHER SERVICE MILWAUKEE/SULLIVAN WI
600 PM CST WED DEC 24 2014

NOTE: "FAIR" INDICATES FEW OR NO CLOUDS BELOW 12,000 FEET WITH NO
SIGNIFICANT WEATHER AND/OR OBSTRUCTIONS TO VISIBILITY.

WIZ001-002-006>008-014>016-023>028-250100-
NORTHWEST WISCONSIN

CITY           SKY/WX    TMP DP  RH WIND       PRES   REMARKS
SUPERIOR ARPT  CLOUDY    33  31  91 W3        29.58S
ASHLAND        CLOUDY    32  32 100 CALM      29.56F
6HR MIN TEMP:  32; 6HR MAX TEMP:  34; 6HR PCP:  0.01;

HAYWARD        CLOUDY    33  28  81 CALM      29.56F
6HR MIN TEMP:  33; 6HR MAX TEMP:  35; 6HR PCP: TRACE;

SIREN          CLOUDY    33  31  92 CALM      29.58F
CUMBERLAND     CLOUDY    32  30  93 NW5       29.57F WCI  27
RICE LAKE      CLOUDY    34  30  86 CALM      29.59F
CHETEK         CLOUDY    33  31  92 W3        29.58S
LADYSMITH      CLOUDY    33  31  92 NW8       29.57S WCI  27
EAU CLAIRE     NOT AVBL
MENOMONIE      CLOUDY    35  30  83 W7        29.60S WCI  29
NEW RICHMOND   CLOUDY    33  32  95 W5        29.60F WCI  29
OSCEOLA        CLOUDY    34  33  95 W5        29.63F WCI  30
$$

WIZ003>005-009-010-017-018-250100-
NORTH CENTRAL WISCONSIN

CITY           SKY/WX    TMP DP  RH WIND       PRES   REMARKS
MANITOWISH WTR CLOUDY    30  30 100 N3        29.50F
ARBOR VITAE    LGT SNOW  32  30  92 NW3       29.50S
WOODRUFF       LGT SNOW  32  30  92 NW3       29.50S
RHINELANDER    CLOUDY    30  27  88 NW8       29.49S WCI  22
6HR MIN TEMP:  30; 6HR MAX TEMP:  31; 6HR PCP: TRACE;

EAGLE RIVER    CLOUDY    29  28  96 N7        29.48S WCI  22
LAND O LAKES   LGT SNOW  30  28  94 NW6       29.49S WCI  24
PHILLIPS       CLOUDY    31  29  94 NW3       29.52F
TOMAHAWK       CLOUDY    31  28  91 CALM      29.51S
MEDFORD        CLOUDY    31  29  90 NW6       29.52F WCI  26
MERRILL        CLOUDY    32  30  92 NW7       29.51S WCI  26
$$

WIZ029-030-035-036-043>047-250100-
CENTRAL WISCONSIN

CITY           SKY/WX    TMP DP  RH WIND       PRES   REMARKS
WAUSAU         CLOUDY    32  29  88 NW7       29.50R WCI  26
6HR MIN TEMP:  32; 6HR MAX TEMP:  34;

MOSINEE        CLOUDY    32  32 100 NW8       29.52R WCI  25
MARSHFIELD     FLURRIES  34  30  85 NW12      29.53S WCI  25
6HR MIN TEMP:  34; 6HR MAX TEMP:  35; 6HR PCP: TRACE;

STEVENS POINT  CLOUDY    32  29  90 NW6       29.52R WCI  26
WAUPACA        CLOUDY    36  35  96 NW3       29.51S
WAUTOMA        CLOUDY    34  34 100 NW6       29.52S WCI  29
WISC RAPIDS    CLOUDY    33  29  85 NW8       29.54R WCI  26
6HR MIN TEMP:  33; 6HR MAX TEMP:  35;

CAMP DOUGLAS   NOT AVBL
$$

WIZ011>013-019>022-031-037>040-048>050-250100-
NORTHEAST WISCONSIN

CITY           SKY/WX    TMP DP  RH WIND       PRES   REMARKS
ANTIGO         CLOUDY    30  28  92 N9        29.47F WCI  22
SHAWANO        CLOUDY    35  34  96 CALM      29.50S
OCONTO         CLOUDY    33  33 100 N5        29.48S WCI  29
STURGEON BAY   CLOUDY    34  30  86 N10       29.48R WCI  26
6HR MIN TEMP:  34; 6HR MAX TEMP:  36;

GREEN BAY      LGT SNOW  33  33 100 MISG      29.49S FOG
6HR MIN TEMP:  33; 6HR MAX TEMP:  35; 6HR PCP:  0.04;

MANITOWOC      CLOUDY    36  36 100 NW9       29.47S FOG     WCI  29
APPLETON       LGT RAIN  34  34 100 NW9       29.49S FOG     WCI  26
CLINTONVILLE   CLOUDY    34  32  93 NW6       29.50R WCI  29
OSHKOSH        FLURRIES  34  32  92 NW8       29.50R WCI  27
6HR MIN TEMP:  33; 6HR MAX TEMP:  35; 6HR PCP:  0.01;

$$

WIZ032>034-041-042-053>061-250100-
SOUTHWEST WISCONSIN

CITY           SKY/WX    TMP DP  RH WIND       PRES   REMARKS
LA CROSSE      CLOUDY    37  31  78 NW9       29.60S WCI  30
6HR MIN TEMP:  36; 6HR MAX TEMP:  38;

SPARTA         CLOUDY    35  31  87 W7        29.60R WCI  29
VIROQUA        CLOUDY    33  33 100 NW8       29.57R WCI  26
BOSCOBEL       CLOUDY    37  31  78 CALM      29.60S
6HR MIN TEMP:  37; 6HR MAX TEMP:  37;

PRAIRIE DU CHI CLOUDY    36  31  82 W9        29.61R WCI  29
PLATTEVILLE    CLOUDY    34  32  92 W8        29.57S WCI  28
$$

WIZ056-057-062-063-064-067-068-250100-
SOUTH CENTRAL WISCONSIN

CITY           SKY/WX    TMP DP  RH WIND       PRES   REMARKS
REEDSBURG      CLOUDY    33  32  96 W10       29.54R WCI  25
BARABOO/DELLS  CLOUDY    33  32  99 NW7       29.53R WCI  26
LONE ROCK      NOT AVBL
MINERAL POINT  CLOUDY    36  32  87 NW10G21   29.55R WCI  28
MADISON        CLOUDY    35  32  88 NW7       29.53S WCI  29
6HR MIN TEMP:  35; 6HR MAX TEMP:  36; 6HR PCP: TRACE;

MIDDLETON      CLOUDY    36  35  98 NW7       29.54R WCI  30
WATERTOWN      DRIZZLE   34  34 100 NW8       29.51R WCI  27
MONROE         CLOUDY    34  32  93 NW9       29.54R WCI  26
JANESVILLE     DRIZZLE   36  34  93 W9        29.53R WCI  29
$$

WIZ051-052-058>065-066-070>072-250100-
SOUTHEAST WISCONSIN

CITY           SKY/WX    TMP DP  RH WIND       PRES   REMARKS
MILWAUKEE      CLOUDY    37  33  85 W12       29.49S WCI  29
6HR MIN TEMP:  37; 6HR MAX TEMP:  41;

WAUKESHA       DRIZZLE   34  34 100 NW12      29.50R WCI  25
MILWAUKEE/TIMM NOT AVBL
RACINE         CLOUDY    38  33  82 W12G17    29.50S WCI  30
6HR MIN TEMP:  38; 6HR MAX TEMP:  40;

BURLINGTON     CLOUDY    34  33  96 NW8       29.51R WCI  27
KENOSHA        CLOUDY    37  34  89 W12       29.50R WCI  29
6HR MIN TEMP:  37; 6HR MAX TEMP:  39;

FOND DU LAC    FLURRIES  34  32  92 NW8       29.50R WCI  27
6HR MIN TEMP:  34; 6HR MAX TEMP:  36; 6HR PCP:  0.01;

SHEBOYGAN      CLOUDY    35  33  92 NW9       29.47S WCI  28
6HR MIN TEMP:  35; 6HR MAX TEMP:  39; 6HR PCP: TRACE;

WEST BEND      MIX PCPN  34  32  93 W10       29.48S WCI  26
JUNEAU         CLOUDY    33  33  98 W7        29.51S WCI  27
$$

LSZ147-162-250100-
LAKE SUPERIOR

STATION/POSITION TIME  TEMP    WIND        PRES    WAVE
                       AIR SEA DIR/SP/G            HT/PER
                 (UTC) (F)     (DEG/KT/KT) (MB)    (FT/S)
DEVILS ISLAND    2300   33     230/  5/  6 1001.9F
PORT WING        2340   34     210/  3/  5 1001.7F
SAXON HARBOR     2300   33     280/  3/  6 1001.7F
$$

LMZ867-665-643>646-250100-
LAKE MICHIGAN

STATION/POSITION TIME  TEMP    WIND        PRES    WAVE
                       AIR SEA DIR/SP/G            HT/PER
                 (UTC) (F)     (DEG/KT/KT) (MB)    (FT/S)
CHAMBERS ISLAND  2300   34     320/ 13/ 15  998.3S
NORTHPORT PIER   2300   34     350/ 14/ 18  997.6S
SISTER BAY       2313          360/ 20/ 23   N/A
ALGOMA LAKESHORE 2315          340/  9/ 11   N/A
KEWAUNEE LAKESHO 2300   35     320/  4/ 10  996.8F
SHEBOYGAN LAKESH 2300   36 37  300/ 10/ 12  998.5R
PORT WASHINGTON  2300   37     280/  6/ 12  999.3R
MILWAUKEE LAKESH 2300   38     290/  9/ 11   N/A
KENOSHA   LAKESH 2300   38     280/ 10/ 15  999.0R
$$

TC  - TEMPERATURE IN CELSIUS
VSB - VISIBILITY IN STATUTE MILES
WCI - WIND CHILL INDEX
HX  - HEAT INDEX




USA.gov is the U.S. government's official web portal to all federal, state and local government web resources and services.